Terminal Aerodrome Forecast
Issued by NWS Grand Junction, CO

Home | Current Version | Previous Version | Text Only | Print | Product List | Glossary On
Versions: 1 2 3 4 5 6 7 8 9 10 11 12 13 14 15 16 17 18 19 20 21 22 23 24 25 26 27 28 29 30 31 32 33 34 35 36 37 38 39 40 41 42 43
000
FTUS45 KGJT 260535
TAFGJT
TAF
KGJT 260535Z 2606/2706 12006KT P6SM VCSH SCT100 SCT150
     FM261900 29008G15KT P6SM VCTS SCT080CB BKN150
     FM270300 04005KT P6SM VCSH FEW080 BKN110=

USA.gov is the U.S. government's official web portal to all federal, state and local government web resources and services.